[[{"header":{"parameterUnit":"m.s-1","parameterCategory":1,"la1":30.2991,"la2":30.254,"lo1":-89.0895,"lo2":-89.0444,"dy":0.0017,"dx":0.0017,"nx":28,"ny":28,"refTime":"2024-08-29T09:00:00:Z","depth":0,"parameterNumber":2,"parameterNumberName":"U-component_of_WINDS"},"data":[0,0,0,0,0,0,0,0,0,0,0,0,0,0,0,0,0,0,0,0,0,0,0,0,0,0,0,0,0,0,0,0,0,0,0,0,0,0,0,0,0,0,0,0,0,0,0,0,0,0,0,0,0,0,0,0,0,0,-2.2412,-2.2412,0,-2.2452,-2.2452,-2.2453,-2.2417,-2.2415,-2.2414,-2.2412,-2.2453,-2.2455,-2.2458,0,0,0,0,0,0,0,0,0,0,0,0,0,-2.2304,-2.2306,-2.2412,-2.2412,-2.2413,-2.2452,-2.2452,-2.2453,-2.2417,-2.2415,-2.2413,-2.2412,-2.2452,-2.2455,-2.2458,0,0,0,0,0,0,0,0,0,0,0,0,0,-2.2348,-2.2307,-2.2412,-2.24,-2.2399,-2.2452,-2.2452,-2.2453,-2.2417,-2.2415,-2.2413,-2.2411,-2.2451,-2.2455,-2.2458,-2.2525,0,0,-2.247,-2.2471,0,0,0,0,0,0,0,0,-2.2346,-2.2352,-2.2401,-2.2401,-2.24,-2.2427,-2.2429,-2.2477,-2.2418,-2.241,-2.2412,-2.241,-2.2446,-2.245,-2.2462,-2.2527,-2.2529,-2.247,-2.2472,-2.2474,-2.2475,0,0,0,0,0,0,0,-2.2343,-2.235,-2.2428,-2.2402,-2.2401,-2.2392,-2.2396,-2.2438,-2.244,-2.2411,-2.2408,-2.2413,-2.2445,-2.2459,-2.2463,-2.253,-2.247,-2.2473,-2.2475,-2.2477,-2.2651,-2.2653,0,0,0,0,0,0,-2.2341,-2.2348,-2.2426,-2.2429,-2.2367,-2.2396,-2.24,-2.2421,-2.2439,-2.244,-2.2415,-2.2412,-2.2454,-2.2459,-2.2464,-2.2544,-2.2474,-2.2477,-2.2479,-2.2649,-2.2652,-2.2654,0,0,0,0,0,0,-2.2339,-2.2348,-2.2425,-2.2388,-2.2397,-2.24,-2.2423,-2.2422,-2.2436,-2.2443,-2.2443,-2.2429,-2.2452,-2.2459,-2.251,-2.2545,-2.2479,-2.2482,-2.2646,-2.265,-2.2653,-2.2703,0,0,0,0,0,0,-2.2336,-2.2348,-2.2373,-2.2389,-2.2399,-2.247,-2.2425,-2.2425,-2.2442,-2.2438,-2.2456,-2.2456,-2.2451,-2.2505,-2.2514,-2.2548,-2.2485,-2.2643,-2.2648,-2.2652,-2.2698,-2.2708,-2.2716,0,0,0,0,0,-2.2332,-2.2386,-2.2375,-2.2384,-2.2431,-2.2472,-2.2478,-2.2471,-2.2445,-2.2471,-2.2475,-2.2456,-2.254,-2.2511,-2.252,-2.2556,-2.2641,-2.2646,-2.2651,-2.2694,-2.2706,-2.2716,0,0,0,0,0,0,-2.2374,-2.2388,-2.2376,-2.2436,-2.2453,-2.2466,-2.2498,-2.2484,-2.2509,-2.2504,-2.2493,-2.2498,-2.2552,-2.2559,-2.2527,-2.2622,-2.2586,-2.2594,-2.2615,-2.2626,-2.2635,-2.2632,-2.2488,0,0,0,0,0,-2.2391,-2.2423,-2.2433,-2.2485,-2.2495,-2.2495,-2.2513,-2.2506,-2.2523,-2.2531,-2.2539,-2.2557,-2.2587,-2.2607,-2.2635,-2.27,-2.2703,-2.2729,-2.2738,-2.2745,-2.2752,-2.2786,-2.2798,-2.2672,-2.2672,-2.2672,0,0,-2.2424,-2.2436,-2.2457,-2.2494,-2.2507,-2.254,-2.2501,-2.2539,-2.2564,-2.2536,-2.2585,-2.2592,-2.2611,-2.2669,-2.2695,-2.2677,-2.2787,-2.2752,-2.2758,-2.2761,-2.2793,-2.2805,-2.2815,-2.2676,-2.2675,-2.2675,0,0,-2.2503,-2.2515,-2.256,-2.2574,-2.2593,-2.2593,-2.2604,-2.262,-2.2623,-2.2672,-2.2652,-2.2682,-2.2734,-2.2749,-2.2763,-2.2848,-2.2831,-2.2858,-2.2904,-2.2937,-2.2947,-2.2956,-2.2986,-2.2997,-2.2864,-2.2864,-2.2864,0,-2.2543,-2.2593,-2.2585,-2.2624,-2.264,-2.2617,-2.2662,-2.2676,-2.2704,-2.2716,-2.2696,-2.2761,-2.2773,-2.2833,-2.2854,-2.2867,-2.2879,-2.2855,-2.2946,-2.2955,-2.2963,-2.2992,-2.3003,-2.2867,-2.2867,-2.2867,-2.2866,0,-2.264,-2.2676,-2.2709,-2.2737,-2.2758,-2.28,-2.2798,-2.282,-2.2811,-2.2813,-2.2863,-2.2876,-2.2907,-2.2921,-2.2913,-2.2981,-2.2969,-2.2948,-2.2911,-2.2978,-2.3005,-2.3016,-2.2872,-2.2871,-2.287,-2.2869,0,0,-2.2746,-2.2769,-2.2782,-2.2794,-2.2814,-2.2841,-2.2882,-2.2912,-2.2931,-2.2952,-2.2985,-2.3031,-2.3011,-2.3028,-2.3021,-2.3051,-2.3117,-2.3026,-2.3026,-2.3042,-2.3192,-2.3208,-2.3221,-2.3106,-2.3108,-2.311,-2.3191,0,-2.2826,-2.2897,-2.289,-2.2957,-2.299,-2.2969,-2.3004,-2.3021,-2.3024,-2.3052,-2.3056,-2.3088,-2.306,-2.3069,-2.3098,-2.3103,-2.3147,-2.3097,-2.3137,-2.3139,-2.3132,-2.3234,-2.3251,-2.3327,-2.3201,-2.3203,-2.3204,0,-2.2927,-2.2951,-2.3022,-2.3037,-2.3051,-2.3083,-2.311,-2.3137,-2.3155,-2.3155,-2.3174,-2.3162,-2.3204,-2.3167,-2.3223,-2.319,-2.3206,-2.3211,-2.3214,-2.3217,-2.3175,-2.324,-2.3351,-2.3362,-2.322,-2.3219,-2.3218,0,-2.2997,-2.3047,-2.3096,-2.3107,-2.3126,-2.3149,-2.3158,-2.3175,-2.3193,-2.3217,-2.3228,-2.3257,-2.3272,-2.3294,-2.3291,-2.3264,-2.3349,-2.3311,-2.335,-2.335,-2.3368,-2.3367,-2.3483,-2.338,-2.3379,-2.3379,-2.3379,0,-2.3086,-2.313,-2.3127,-2.3157,-2.3205,-2.3198,-2.3246,-2.3253,-2.3267,-2.3298,-2.3282,-2.3311,-2.3305,-2.3334,-2.3331,-2.3379,-2.3386,-2.3387,-2.3386,-2.3388,-2.3388,-2.3398,-2.3393,-2.3382,-2.3381,-2.3381,-2.338,0,-2.3172,-2.3172,-2.3223,-2.3237,-2.3242,-2.3277,-2.3289,-2.3318,-2.332,-2.3359,-2.3368,-2.3371,-2.3404,-2.3403,-2.3441,-2.344,-2.3498,-2.3491,-2.3492,-2.349,-2.3528,-2.3525,-2.3654,-2.3671,-2.3558,-2.3559,-2.356,0,-2.3228,-2.3262,-2.3279,-2.3299,-2.3309,-2.3341,-2.336,-2.3354,-2.3374,-2.3397,-2.3423,-2.3455,-2.348,-2.3534,-2.354,-2.3569,-2.3563,-2.3606,-2.3567,-2.3568,-2.3563,-2.3561,-2.3564,-2.3614,-2.3615,-2.3616,-2.3617,0,-2.3329,-2.3327,-2.3355,-2.3382,-2.3405,-2.3427,-2.3446,-2.3463,-2.3459,-2.3483,-2.3517,-2.3536,-2.3575,-2.3607,-2.3635,-2.3645,-2.363,-2.3629,-2.364,-2.3642,-2.3641,-2.3642,-2.3512,-2.3626,-2.3625,-2.3624,-2.3624,-2.3624,-2.3401,-2.343,-2.3447,-2.3478,-2.3492,-2.3511,-2.3538,-2.3544,-2.3572,-2.3603,-2.3598,-2.3636,-2.3654,-2.369,-2.3702,-2.3731,-2.3716,-2.3731,-2.3735,-2.3739,-2.3743,-2.3637,-2.3737,-2.3736,-2.3736,-2.3736,-2.3736,0,-2.3501,-2.351,-2.3539,-2.3567,-2.3592,-2.3576,-2.3597,-2.3619,-2.3653,-2.367,-2.3695,-2.3734,-2.3765,-2.3774,-2.3804,-2.3826,-2.382,-2.3834,-2.3832,-2.3835,-2.3755,-2.3743,-2.3838,-2.3838,-2.3838,-2.3838,-2.3838,-2.3838,-2.3555,-2.3602,-2.3603,-2.3657,-2.3666,-2.3703,-2.3717,-2.3734,-2.3748,-2.3792,-2.3818,-2.3823,-2.3837,-2.3868,-2.3896,-2.3898,-2.3909,-2.3926,-2.3925,-2.385,-2.384,-2.383,-2.3819,-2.3929,-2.3929,-2.4002,-2.4002,-2.4003]},{"header":{"parameterUnit":"m.s-1","parameterCategory":1,"la1":30.2991,"la2":30.254,"lo1":-89.0895,"lo2":-89.0444,"dy":0.0017,"dx":0.0017,"nx":28,"ny":28,"refTime":"2024-08-29T09:00:00:Z","depth":0,"parameterNumber":3,"parameterNumberName":"V-component_of_WINDS"},"data":[0,0,0,0,0,0,0,0,0,0,0,0,0,0,0,0,0,0,0,0,0,0,0,0,0,0,0,0,0,0,0,0,0,0,0,0,0,0,0,0,0,0,0,0,0,0,0,0,0,0,0,0,0,0,0,0,0,0,2.3885,2.3885,0,2.3919,2.3919,2.392,2.3864,2.3862,2.386,2.3858,2.3891,2.3893,2.3896,0,0,0,0,0,0,0,0,0,0,0,0,0,2.3769,2.3772,2.3885,2.3885,2.3886,2.3919,2.3919,2.392,2.3864,2.3862,2.386,2.3858,2.389,2.3893,2.3896,0,0,0,0,0,0,0,0,0,0,0,0,0,2.3813,2.3773,2.3885,2.3862,2.3861,2.3919,2.3919,2.392,2.3865,2.3862,2.3859,2.3856,2.3889,2.3893,2.3897,2.3978,0,0,2.3909,2.391,0,0,0,0,0,0,0,0,2.3811,2.3817,2.3865,2.3864,2.3862,2.3884,2.389,2.3939,2.3866,2.3863,2.3858,2.3855,2.3891,2.3894,2.3907,2.3979,2.3981,2.3909,2.3911,2.3913,2.3914,0,0,0,0,0,0,0,2.3808,2.3816,2.3898,2.3866,2.3864,2.3849,2.3852,2.3899,2.3892,2.3863,2.3859,2.3864,2.3889,2.3903,2.3907,2.3981,2.3909,2.3912,2.3915,2.3916,2.4122,2.4124,0,0,0,0,0,0,2.3808,2.3813,2.3897,2.3899,2.3829,2.3854,2.3857,2.388,2.3892,2.3891,2.3866,2.3861,2.3898,2.3903,2.3908,2.4004,2.3913,2.3917,2.3919,2.4118,2.4122,2.4126,0,0,0,0,0,0,2.3806,2.3816,2.3896,2.3855,2.3864,2.3859,2.3885,2.3882,2.3896,2.3894,2.3893,2.3882,2.3896,2.3903,2.3961,2.4004,2.3918,2.3922,2.4115,2.412,2.4124,2.4196,0,0,0,0,0,0,2.3802,2.3815,2.3847,2.3857,2.3867,2.3949,2.3888,2.3885,2.3903,2.3897,2.3909,2.3908,2.3894,2.3955,2.3965,2.4008,2.3925,2.4111,2.4117,2.4122,2.419,2.4202,2.4213,0,0,0,0,0,2.3799,2.3865,2.3849,2.3859,2.3906,2.3952,2.3957,2.3941,2.3907,2.3938,2.3937,2.3907,2.3998,2.3962,2.3972,2.4017,2.4108,2.4115,2.4122,2.4184,2.42,2.4213,0,0,0,0,0,0,2.386,2.3866,2.3848,2.392,2.3936,2.3942,2.3981,2.3958,2.3984,2.3977,2.3955,2.3958,2.402,2.4024,2.3984,2.4096,2.4047,2.4057,2.4091,2.4106,2.4117,2.4115,2.3928,0,0,0,0,0,2.3882,2.3919,2.3922,2.3986,2.3995,2.3987,2.4006,2.3992,2.4007,2.4014,2.4017,2.4032,2.4064,2.4085,2.4114,2.419,2.4191,2.4226,2.4238,2.4248,2.4256,2.4296,2.4311,2.4148,2.4148,2.4148,0,0,2.3927,2.3936,2.396,2.3998,2.4009,2.4047,2.3993,2.4035,2.4063,2.402,2.4075,2.4078,2.4094,2.4161,2.4191,2.4166,2.4301,2.4256,2.4264,2.4267,2.4304,2.432,2.4333,2.4153,2.4152,2.4151,0,0,2.403,2.404,2.4094,2.4106,2.4123,2.4118,2.4131,2.4141,2.4141,2.4197,2.4165,2.4197,2.4253,2.4265,2.4278,2.4386,2.436,2.4396,2.4458,2.4497,2.451,2.4521,2.4559,2.4573,2.4404,2.4405,2.4405,0,2.4084,2.4142,2.4124,2.4169,2.4187,2.415,2.4203,2.4216,2.4241,2.4254,2.4226,2.4295,2.4303,2.4373,2.4399,2.4411,2.4425,2.4394,2.451,2.4521,2.4531,2.4567,2.4581,2.4409,2.4408,2.4408,2.4408,0,2.4207,2.4247,2.4288,2.4315,2.4337,2.4386,2.4375,2.4399,2.4384,2.4381,2.4438,2.4446,2.4476,2.4492,2.4477,2.4559,2.4543,2.4513,2.4464,2.4551,2.4584,2.4598,2.4415,2.4414,2.4412,2.4411,0,0,2.4349,2.4365,2.4381,2.4392,2.4409,2.4439,2.4486,2.4517,2.4538,2.4557,2.4595,2.4643,2.4615,2.4631,2.4617,2.4651,2.4735,2.4617,2.4617,2.4638,2.4826,2.4849,2.4865,2.4718,2.4721,2.4723,2.4825,0,2.445,2.4533,2.4519,2.4598,2.4635,2.4601,2.4642,2.4656,2.4654,2.4685,2.4682,2.4717,2.4678,2.4687,2.472,2.4718,2.4773,2.4711,2.4753,2.4755,2.475,2.4882,2.4906,2.5002,2.4838,2.484,2.4842,0,2.458,2.4605,2.4688,2.4699,2.4714,2.4751,2.4778,2.4807,2.4822,2.4819,2.4837,2.4816,2.4862,2.4813,2.4876,2.4834,2.485,2.4852,2.4856,2.4858,2.4803,2.4888,2.5032,2.5047,2.4862,2.486,2.4859,0,2.4674,2.4728,2.4785,2.4796,2.481,2.4837,2.4844,2.4857,2.4876,2.4899,2.4911,2.4939,2.4954,2.4976,2.4963,2.4928,2.5028,2.4977,2.5026,2.5026,2.5048,2.5047,2.5196,2.506,2.5059,2.5059,2.5059,0,2.4789,2.4841,2.4828,2.4863,2.492,2.4903,2.496,2.4963,2.4974,2.5009,2.4981,2.5013,2.4995,2.5026,2.5016,2.507,2.5077,2.5075,2.5071,2.5077,2.5077,2.5087,2.508,2.5063,2.5062,2.5061,2.5061,0,2.4904,2.4897,2.4957,2.4965,2.4969,2.5011,2.5018,2.505,2.5047,2.509,2.51,2.5094,2.5129,2.5119,2.5157,2.515,2.5218,2.5206,2.5213,2.521,2.5259,2.5254,2.542,2.544,2.5291,2.5292,2.5293,0,2.4977,2.5017,2.503,2.5052,2.5061,2.5096,2.5115,2.51,2.5121,2.5141,2.5171,2.5204,2.5229,2.5287,2.5286,2.5315,2.5303,2.5359,2.5307,2.5312,2.5303,2.5301,2.5305,2.5369,2.5371,2.5372,2.5373,0,2.5108,2.5103,2.5133,2.5162,2.5186,2.5208,2.5227,2.5246,2.5231,2.5257,2.5293,2.5313,2.5352,2.5384,2.5411,2.5416,2.5393,2.539,2.5403,2.5408,2.5411,2.541,2.5241,2.5386,2.5385,2.5384,2.5383,2.5383,2.5204,2.5238,2.5252,2.5286,2.5299,2.5318,2.5349,2.535,2.538,2.5411,2.5399,2.5441,2.5454,2.5487,2.5497,2.5528,2.5507,2.5525,2.553,2.5534,2.5541,2.5406,2.5533,2.5533,2.5532,2.5532,2.5532,0,2.5333,2.5341,2.5373,2.5401,2.5427,2.5404,2.5423,2.5447,2.5484,2.5499,2.5525,2.5566,2.5598,2.56,2.5629,2.5654,2.5644,2.5662,2.566,2.5662,2.5558,2.5544,2.567,2.567,2.567,2.567,2.567,2.567,2.5404,2.5459,2.5456,2.5517,2.5524,2.5565,2.5578,2.5595,2.5607,2.5655,2.5681,2.5682,2.5692,2.5722,2.575,2.5749,2.5761,2.5784,2.578,2.5683,2.5669,2.5656,2.5643,2.5787,2.5787,2.588,2.5881,2.5882]}]]